Volver al catálogo

STARLINK-4382

ActivoComunicacionesSSO
NORAD 53194·PAYLOAD·🇺🇸 United States

Lanzado Jul 22, 2022 desde Vandenberg Space Force Base

Loading…

Próximos Pases (próximas 24 horas)

TLE

ActualizadoSource: CelesTrak SupGP

Época: Sep 15, 2026, 01:52 UTC

1 53194C 22084F   26258.07826389  .00064013  00000+0  19869-2 0  2580
2 53194  97.2830 313.8854 0001572  87.9995 356.5722 15.33410299    15

Sigue STARLINK-4382 en tiempo real con AllMySat

Download on the App Store